User: anonymous   Login
Location: Unspecified
(0.0000°N, 0.0000°E)
Time: 03:24:20
(UTC+00:00)
Language:

STARLINK-35804 - Orbit

View from above orbital plane
View from above orbital plane
View from above satellite
View from above satellite

Ground track
Ground track

The orbit is defined by the following mean orbital elements,

1 66371U          26145.53719147 +.00000000 +00000-0 +29110-3 0 00007
2 66371  53.1579 233.1689 0001068  80.2599 279.8522 15.30199723    00
Epoch (UTC): 25 May 2026 12:53:33
Eccentricity: 0.0001068
inclination: 53.1579°
perigee height: 474 km
apogee height: 476 km
right ascension of ascending node: 233.1689°
argument of perigee: 80.2599°
revolutions per day: 15.30199723
mean anomaly at epoch: 279.8522°

The dashed part of the orbit path shows where the satellite is in the earth's shadow,  

DLR